Bandera, Texas, United States (78003)
Lat: 29.73N, Lon: 99.07W
Wx Zone: TXZ187
Local Info
Past Weather Observations for Yesterday

NOTE: This archive is for the closest National Weather Service station to Bandera. Information may differ from the station used for current weather conditions.

Click here for Long-term Archive

Time Weather Temperature Dewpoint Humidity Pressure Winds Precip Visibility
23:51
Clear
82°F / 28°C 73°F / 23°C 74% 30.01 in
(1016 mb)
SSE 15 mph
(SSE 24 kph)
- 10SM
22:51
Clear
82°F / 28°C 75°F / 24°C 79% 29.98 in
(1015 mb)
SSE 16.1 mph
(SSE 26 kph)
- 10SM
21:51
Clear
86°F / 30°C 73°F / 23°C 66% 29.98 in
(1015 mb)
SSE 17.3 mph
(SSE 28 kph)
- 10SM
20:51
Clear
90°F / 32°C 66°F / 19°C 46% 29.95 in
(1014 mb)
SE 11.5 mph
(SE 19 kph)
- 10SM
19:51
Clear
91°F / 33°C 66°F / 19°C 44% 29.92 in
(1013 mb)
SE 11.5 mph
(SE 19 kph)
- 10SM
18:51
Clear
93°F / 34°C 66°F / 19°C 41% 29.92 in
(1013 mb)
SE 13.8 mph
(SE 22 kph)
- 10SM
17:51
Partly Cloudy
97°F / 36°C 64°F / 18°C 34% 29.89 in
(1012 mb)
S 12.7 mph
(S 20 kph)
- 10SM
16:51
Partly Cloudy
99°F / 37°C 64°F / 18°C 33% 29.92 in
(1013 mb)
SE 5.8 mph
(SE 9 kph)
- 10SM
15:51
Clear
97°F / 36°C 64°F / 18°C 34% 29.92 in
(1013 mb)
S 6.9 mph
(S 11 kph)
- 10SM
14:51
Partly Cloudy
99°F / 37°C 68°F / 20°C 37% 29.95 in
(1014 mb)
S 11.5 mph
(S 19 kph)
- 10SM
13:51
Partly Cloudy
97°F / 36°C 70°F / 21°C 42% 29.95 in
(1014 mb)
SSE 11.5 mph
(SSE 19 kph)
- 10SM
12:51
Partly Cloudy
93°F / 34°C 70°F / 21°C 47% 29.98 in
(1015 mb)
SE 4.6 mph
(SE 7 kph)
- 10SM
11:51
Partly Cloudy
91°F / 33°C 72°F / 22°C 52% 29.98 in
(1015 mb)
Calm - 10SM
10:51
Clear
88°F / 31°C 72°F / 22°C 59% 30.01 in
(1016 mb)
Variable 4.6 mph
(Variable 7 kph)
- 10SM
09:51
Clear
86°F / 30°C 72°F / 22°C 62% 30.01 in
(1016 mb)
S 5.8 mph
(S 9 kph)
- 10SM
09:28
Partly Cloudy
84°F / 29°C 72°F / 22°C 66% 30.01 in
(1016 mb)
S 8.1 mph
(S 13 kph)
- 10SM
09:16
Mostly Cloudy
84°F / 29°C 72°F / 22°C 66% 30.01 in
(1016 mb)
Variable 4.6 mph
(Variable 7 kph)
- 10SM
08:51
Partly Cloudy
82°F / 28°C 72°F / 22°C 70% 30.01 in
(1016 mb)
Variable 5.8 mph
(Variable 9 kph)
- 10SM
08:02
Partly Cloudy
81°F / 27°C 73°F / 23°C 79% 30.01 in
(1016 mb)
SE 11.5 mph
(SE 19 kph)
- 9SM
07:51
Mostly Cloudy
81°F / 27°C 75°F / 24°C 84% 30.01 in
(1016 mb)
SSE 8.1 mph
(SSE 13 kph)
- 8SM
07:33
Mostly Cloudy
81°F / 27°C 75°F / 24°C 84% 30.01 in
(1016 mb)
SE 6.9 mph
(SE 11 kph)
- 8SM
06:58
Overcast
79°F / 26°C 75°F / 24°C 89% 30.01 in
(1016 mb)
E 5.8 mph
(E 9 kph)
- 8SM
06:51
Overcast
79°F / 26°C 75°F / 24°C 89% 30.01 in
(1016 mb)
E 5.8 mph
(E 9 kph)
- 8SM
05:51
Overcast
79°F / 26°C 73°F / 23°C 84% 29.98 in
(1015 mb)
Calm - 9SM
04:51
Overcast
79°F / 26°C 75°F / 24°C 89% 29.98 in
(1015 mb)
SE 8.1 mph
(SE 13 kph)
- 9SM
04:31
Overcast
79°F / 26°C 75°F / 24°C 89% 29.98 in
(1015 mb)
SE 6.9 mph
(SE 11 kph)
- 9SM
03:51
Overcast
79°F / 26°C 75°F / 24°C 89% 29.95 in
(1014 mb)
SE 8.1 mph
(SE 13 kph)
- 9SM
03:22
Overcast
79°F / 26°C 73°F / 23°C 84% 29.95 in
(1014 mb)
SE 5.8 mph
(SE 9 kph)
- 9SM
02:51
Overcast
79°F / 26°C 73°F / 23°C 84% 29.98 in
(1015 mb)
SE 8.1 mph
(SE 13 kph)
- 9SM
02:35
Mostly Cloudy
79°F / 26°C 73°F / 23°C 84% 29.95 in
(1014 mb)
SE 6.9 mph
(SE 11 kph)
- 9SM
01:51
Clear
79°F / 26°C 73°F / 23°C 84% 29.98 in
(1015 mb)
SE 6.9 mph
(SE 11 kph)
- 10SM
00:51
Clear
79°F / 26°C 73°F / 23°C 84% 29.95 in
(1014 mb)
SSE 10.4 mph
(SSE 17 kph)
- 10SM
Time Weather Temperature Dewpoint Humidity Pressure Winds Precip Visibility


Weather for websites

WeatherForYou.com, LLC is not responsible for any damages or problems caused by this service. Current weather conditions are obtained from the closest station including government and personal stations which may have varying degrees of accuracy. Weather forecasts are derived from the NOAA NDFD. Like all things, this site belongs to Jesus Christ... He just trusts us to maintain it. If you have any questions or comments email webmaster@weatherforyou.com

Copyright © 2015, WeatherForYou.com LLC. All rights reserved.